COSMOS 2251 DEB, 35834

Orbit data source: Space-Track

COSMOS 2251 DEB, 35834 is space debris in LEO originally from a launch on Wed, 16 Jun 1993 UTC launched from the Plesetsk Missile And Space Complex (PKMTR). The debris from Iridium 33, an American commercial communications satellite, has been tracked extensively since its accidental collision with the defunct Russian satellite Cosmos 2251 in 2009. This event, occurring at high speed in low Earth orbit (LEO), generated thousands of pieces of space debris, significantly increasing the risk of further collisions. The Iridium 33 debris cloud has impacted space traffic management and orbital debris mitigation strategies, making it a subject of ongoing study in space situational awareness.

Loading next visibility...
Identifier
35834, 1993-036ATG
Orbit
LEO
Country
Flag of CISCIS
Related business
Manufacturer
Unknown
Mission
Spacecraft
Bus & Motor
Unknown
Mass
Unknown
Launch date (UTC)
1993-06-16 (32 years ago)
Launch vehicle
Unknown
Launch site
Plesetsk Missile And Space Complex (PKMTR)
Object type
Payload
Rocket body
Debris
Shape & HBR
Unknown shape, 0.1 m
Radar Cross Section
Small (<0.1 m²)

Expand to show TLE details & history
Last TLE update: 15 hours ago

TLE from 15 hours ago
0 COSMOS 2251 DEB
1 35834U 93036ATG 25308.94630470  .00000335  00000-0  18267-3 0  9993
2 35834  73.9349  11.7946 0109973 180.2454 359.9163 14.12946936657291
Epoch: 2025-11-04T22:42Z
TLE epoch observation values (Epoch: 2025-11-04T22:42:40.726Z)
Latitude
-0.26522°
Longitude
166.77484°
Altitude
772.422 km
Speed
7.509 km/s
True Right ascension
12h 47m 28s
True Declination
0° 15' 49"
Sunlit
Object was in daylight at epoch
Visualization orbit readout
Latitude
Unknown
Longitude
Unknown
Altitude
Unknown
Speed
Unknown
Apparent Right ascension
Unknown
Apparent Declination
Unknown
Sunlit
N/A
Visualization observer readout
Local Sidereal Time
09:16:46
Azimuth
Unknown
Elevation
Unknown
Doppler factor
Unknown
Orbital elements
Apogee altitude
926.419 km
Perigee altitude
767.506 km
Semi-major axis
7,225.1 km
Eccentricity
0.011
Inclination
73.9349°
RAAN
11.7946°
Arg. of periapsis
180.2454°
True anomaly
359.91443°
Mean anomaly
359.9163°
Eccentric anomaly
359.91537°
Mean motion
3.53409 °/min
Orbital period
101.87 mins
BSTAR
0.00018267

Documentation

Showing up to 5 results
|